User: anonymous   Login
Location: Unspecified
(0.0000°N, 0.0000°E)
Time: 15:40:30
(UTC+00:00)
Language:

ITUPSAT 1 - Orbit

View from above orbital plane
View from above orbital plane
View from above satellite
View from above satellite

Ground track
Ground track

The orbit data is extracted from the following two-line orbital elements,

1 35935U 09051E   17229.36924382  .00000089  00000-0  31484-4 0  9999
2 35935  98.5189  10.6008 0009330  73.6735 286.5487 14.55344527419136
Epoch (UTC): 17 August 2017 08:51:42
Eccentricity: 0.0009330
inclination: 98.5189°
perigee height: 701 km
apogee height: 715 km
right ascension of ascending node: 10.6008°
argument of perigee: 73.6735°
revolutions per day: 14.55344527
mean anomaly at epoch: 286.5487°
orbit number at epoch: 41913

The dashed part of the orbit path shows where the satellite is in the earth's shadow,  

DLR